Weather History for Huntington, WV

Change the Weather History Date:

Wednesday, August 7, 2013

  Actual Average Record
Temperature  
Mean Temperature 76 °F 76 °F  
Max Temperature 85 °F 86 °F 105 °F (1918)
Min Temperature 67 °F 65 °F 50 °F (1957)
Degree Days  
Heating Degree Days 0 0  
Month to date heating degree days 0 0  
Since 1 June heating degree days 0 12  
Since 1 July heating degree days 0 0  
Cooling Degree Days 11 11  
Month to date cooling degree days 56 77  
Year to date cooling degree days 820 747  
Since 1 June cooling degree days 650 634  
Growing Degree Days 25 (Base 50)    
Moisture  
Dew Point 70 °F    
Average Humidity 79    
Maximum Humidity 93    
Minimum Humidity 65    
Precipitation  
Precipitation T in 0.12 in 1.28 in (1960)
Month to date precipitation 0.03 0.89  
Year to date precipitation 27.27 27.40  
Snow  
Snow 0.00 in - - ()
Month to date snowfall 0.0  
Since 1 September snowfall 12.4  
Snow Depth 0.00 in    
Sea Level Pressure  
Sea Level Pressure 29.95 in    
Wind  
Wind Speed 4 mph (South)    
Max Wind Speed 15 mph    
Max Gust Speed 20 mph    
Visibility 7 miles    
Events      
T = Trace of Precipitation, MM = Missing Value Source: NWS Daily Summary

Daily Weather History Graph

Daily Weather History Graph

Search for Another Location

Airport:

Trip Planner

Search our weather history database for the weather conditions in past years. The results will help you decide how hot, cold, wet, or windy it might be!

Date:

Astronomy

Aug. 07, 2013 Rise Set
Actual Time 6:37 AM EDT 8:33 PM EDT
Civil Twilight 6:08 AM EDT 9:02 PM EDT
Nautical Twilight 5:33 AM EDT 9:37 PM EDT
Astronomical Twilight 4:56 AM EDT 10:14 PM EDT
Moon 7:23 AM EDT (8/7) 8:42 PM EDT (8/7)
Length of Visible Light 14h 53m
Length of Day
13h 55m
New Moon, 1% of the Moon is Illuminated
Aug 7
New Moon
Aug 14
First Quarter
Aug 20
Full
Aug 28
Last Quarter
Sep 5
New

Hourly Weather History & Observations

Time (EDT) Temp. Heat Index Dew Point Humidity Pressure Visibility Wind Dir Wind Speed Gust Speed Precip Events Conditions
12:51 AM 71.1 °F - 69.1 °F 93% 29.95 in 6.0 mi Calm Calm - N/A   Mostly Cloudy
1:51 AM 71.1 °F - 69.1 °F 93% 29.95 in 7.0 mi Calm Calm - N/A   Mostly Cloudy
2:51 AM 71.1 °F - 69.1 °F 93% 29.95 in 7.0 mi Calm Calm - N/A   Mostly Cloudy
3:51 AM 69.1 °F - 66.9 °F 93% 29.95 in 4.0 mi Calm Calm - N/A   Clear
4:51 AM 69.1 °F - 66.9 °F 93% 29.95 in 3.0 mi Calm Calm - N/A   Partly Cloudy
5:51 AM 69.1 °F - 66.9 °F 93% 29.94 in 6.0 mi Calm Calm - N/A   Overcast
6:51 AM 68.0 °F - 66.0 °F 93% 29.95 in 4.0 mi Calm Calm - N/A   Partly Cloudy
7:51 AM 71.1 °F - 69.1 °F 93% 29.95 in 6.0 mi Calm Calm - N/A   Scattered Clouds
8:51 AM 73.9 °F - 70.0 °F 87% 29.96 in 10.0 mi SSW 4.6 mph - N/A   Mostly Cloudy
9:51 AM 77.0 °F - 71.1 °F 82% 29.96 in 7.0 mi SSW 6.9 mph - N/A   Partly Cloudy
10:22 AM 77.0 °F - 71.6 °F 83% 29.99 in 10.0 mi SSW 4.6 mph - N/A   Mostly Cloudy
10:51 AM 78.1 °F - 71.1 °F 79% 29.97 in 5.0 mi SW 5.8 mph - N/A   Haze
11:51 AM 80.1 °F 83.8 °F 72.0 °F 76% 29.98 in 5.0 mi SSW 8.1 mph - N/A   Haze
12:51 PM 82.0 °F 87.4 °F 73.0 °F 74% 29.97 in 5.0 mi South 5.8 mph - N/A   Haze
1:51 PM 82.0 °F 86.7 °F 72.0 °F 71% 29.96 in 5.0 mi South 5.8 mph - N/A   Haze
2:51 PM 82.9 °F 88.0 °F 72.0 °F 69% 29.94 in 5.0 mi SSE 5.8 mph - N/A   Haze
2:58 PM 84.2 °F 89.6 °F 71.6 °F 66% 29.96 in 10.0 mi South 9.2 mph - N/A   Mostly Cloudy
3:51 PM 82.9 °F 87.0 °F 70.0 °F 65% 29.93 in 10.0 mi SSW 11.5 mph - 0.00 in   Mostly Cloudy
4:51 PM 82.9 °F 87.0 °F 70.0 °F 65% 29.92 in 10.0 mi SSW 10.4 mph - N/A   Mostly Cloudy
5:51 PM 81.0 °F 84.9 °F 71.1 °F 72% 29.92 in 10.0 mi Variable 3.5 mph - N/A   Partly Cloudy
6:51 PM 81.0 °F 85.2 °F 72.0 °F 74% 29.91 in 10.0 mi South 4.6 mph - N/A   Mostly Cloudy
7:51 PM 80.1 °F 83.8 °F 72.0 °F 76% 29.91 in 10.0 mi SSE 4.6 mph - N/A   Mostly Cloudy
8:51 PM 78.1 °F - 72.0 °F 81% 29.91 in 10.0 mi ESE 3.5 mph - N/A   Clear
9:51 PM 77.0 °F - 71.1 °F 82% 29.93 in 10.0 mi SE 3.5 mph - N/A   Partly Cloudy
10:51 PM 75.9 °F - 72.0 °F 87% 29.95 in 10.0 mi ESE 3.5 mph - N/A   Mostly Cloudy
11:51 PM 75.9 °F - 71.1 °F 85% 29.96 in 10.0 mi Calm Calm - N/A   Scattered Clouds